This demonstration page uses our WeatherBlox Daily Observations layout. Learn more.

Hourly Observations for May 18, 2018

Temp ( °F °C ) Dew Point ( °F °C ) Humidity (%) Winds ( mph kmh ) Pressure ( in mb ) Visibility ( mi km ) Precip ( " mm )
12:54 am 00:54 Clear 70 21.1 57 13.9 64 64 SSE 16 26 29.88 1012 10 16.0934 0 0
1:54 am 01:54 Clear 69 20.6 56 13.3 63 63 S 14 22 29.88 1012 10 16.0934 0 0
2:54 am 02:54 Clear 66 18.9 54 12.2 65 65 SSE 12 19 29.87 1011 10 16.0934 0 0
3:54 am 03:54 Clear 63 17.2 53 11.7 70 70 S 7 11 29.87 1012 10 16.0934 0 0
4:54 am 04:54 Clear 61 16.1 52 11.1 72 72 ESE 7 11 29.88 1012 10 16.0934 0 0
5:54 am 05:54 Clear 61 16.1 52 11.1 72 72 Calm 29.88 1012 10 16.0934 0 0
6:54 am 06:54 Sunny 56 13.3 52 11.1 87 87 E 5 7 29.91 1013 10 16.0934 0 0
7:54 am 07:54 Sunny 66 18.9 55 12.8 68 68 ESE 10 17 29.9 1012 10 16.0934 0 0
8:54 am 08:54 Sunny 70 21.1 58 14.4 66 66 SSE 13 20 29.87 1012 10 16.0934 0 0
9:54 am 09:54 Partly Cloudy 75 23.9 59 15 58 58 S 7 11 29.87 1012 10 16.0934 0 0
10:54 am 10:54 Mostly Cloudy 78 25.6 58 14.4 50 50 W 7 11 29.91 1013 10 16.0934 0 0
11:54 am 11:54 Mostly Cloudy 74 23.3 55 12.8 52 52 WNW 18 30 29.95 1014 10 16.0934 0 0
12:54 pm 12:54 Mostly Cloudy 75 23.9 55 12.8 50 50 WNW 9 15 29.93 1014 10 16.0934 0 0
1:35 pm 13:35 Mostly Cloudy with Light Rain 70 21.1 58 14.4 66 66 SE 17 28 29.83 1010 10 16.0934 0 0.0254
1:54 pm 13:54 Mostly Sunny 73 22.8 55 12.8 53 53 ESE 20 31 29.76 1008 10 16.0934 0 0.0254
2:54 pm 14:54 Sunny 74 23.3 57 13.9 56 56 S 9 15 29.8 1009 10 16.0934 0 0
3:54 pm 15:54 Partly Cloudy 75 23.9 59 15 58 58 S 10 17 29.81 1010 10 16.0934 0 0.0254
4:54 pm 16:54 Cloudy 73 22.8 61 16.1 66 66 SSW 6 9 29.82 1010 10 16.0934 0 0.0254
5:23 pm 17:23 Cloudy with Light Rain 70 21.1 61 16.1 73 73 NW 14 22 29.85 1011 10 16.0934 0 0.0254
5:54 pm 17:54 Mostly Cloudy 67 19.4 60 15.6 79 79 NW 7 11 29.85 1011 10 16.0934 0 0.0254
6:54 pm 18:54 Sunny 68 20 59 15 73 73 NNW 10 17 29.85 1011 10 16.0934 0 0.0254
7:54 pm 19:54 Sunny 69 20.6 59 15 70 70 N 8 13 29.84 1010 10 16.0934 0 0
8:54 pm 20:54 Clear 67 19.4 59 15 76 76 N 7 11 29.81 1010 10 16.0934 0 0
9:54 pm 21:54 Clear 61 16.1 58 14.4 90 90 Calm 29.83 1010 10 16.0934 0 0
10:54 pm 22:54 Mostly Cloudy 63 17.2 59 15 87 87 N 5 7 29.85 1011 10 16.0934 0 0
11:54 pm 23:54 Clear 62 16.7 58 14.4 86 86 Calm 29.86 1011 10 16.0934 0 0

Powered by AerisWeather